[[{"header":{"parameterUnit":"m.s-1","parameterCategory":1,"la1":30.2991,"la2":30.254,"lo1":-89.0895,"lo2":-89.0444,"dy":0.0017,"dx":0.0017,"nx":28,"ny":28,"refTime":"2023-09-04T09:00:00:Z","depth":0,"parameterNumber":2,"parameterNumberName":"U-component_of_WINDS"},"data":[0,0,0,0,0,0,0,0,0,0,0,0,0,0,0,0,0,0,0,0,0,0,0,0,0,0,0,0,0,0,0,0,0,0,0,0,0,0,0,0,0,0,0,0,0,0,0,0,0,0,0,0,0,0,0,0,0,0,-4.0223,-4.0223,0,-4.0283,-4.0284,-4.0284,-4.028,-4.0279,-4.0278,-4.0277,-4.0338,-4.034,-4.0343,0,0,0,0,0,0,0,0,0,0,0,0,0,-4.0102,-4.0104,-4.0222,-4.0223,-4.0224,-4.0283,-4.0284,-4.0285,-4.028,-4.0279,-4.0277,-4.0276,-4.0337,-4.034,-4.0343,0,0,0,0,0,0,0,0,0,0,0,0,0,-4.0157,-4.0104,-4.0222,-4.0229,-4.023,-4.0283,-4.0284,-4.0285,-4.028,-4.0279,-4.0277,-4.0276,-4.0336,-4.034,-4.0343,-4.0394,0,0,-4.0355,-4.0356,0,0,0,0,0,0,0,0,-4.0154,-4.0162,-4.0227,-4.0228,-4.023,-4.0272,-4.0264,-4.0321,-4.028,-4.0261,-4.0277,-4.0275,-4.0317,-4.0322,-4.0337,-4.0397,-4.0399,-4.0355,-4.0357,-4.0359,-4.036,0,0,0,0,0,0,0,-4.015,-4.0159,-4.0246,-4.0228,-4.023,-4.0228,-4.0235,-4.0275,-4.0296,-4.0262,-4.0262,-4.027,-4.0318,-4.0333,-4.0338,-4.04,-4.0355,-4.0358,-4.0361,-4.0362,-4.0504,-4.0505,0,0,0,0,0,0,-4.0145,-4.0156,-4.0244,-4.0248,-4.0188,-4.0231,-4.0239,-4.026,-4.0295,-4.03,-4.0271,-4.0269,-4.0327,-4.0334,-4.034,-4.0401,-4.0359,-4.0362,-4.0365,-4.0502,-4.0504,-4.0506,0,0,0,0,0,0,-4.0142,-4.0153,-4.0242,-4.0202,-4.0213,-4.0235,-4.0259,-4.0262,-4.0277,-4.0302,-4.0305,-4.0283,-4.0327,-4.0335,-4.038,-4.0403,-4.0364,-4.0368,-4.0501,-4.0503,-4.0505,-4.0523,0,0,0,0,0,0,-4.0139,-4.0152,-4.0172,-4.0203,-4.0215,-4.0282,-4.0261,-4.0264,-4.0284,-4.0282,-4.0314,-4.0318,-4.0326,-4.0375,-4.0384,-4.0407,-4.037,-4.0499,-4.0502,-4.0504,-4.052,-4.0525,-4.053,0,0,0,0,0,-4.0135,-4.0174,-4.0173,-4.0183,-4.024,-4.0283,-4.029,-4.0299,-4.0286,-4.0305,-4.0321,-4.0317,-4.0399,-4.038,-4.039,-4.0414,-4.0497,-4.0501,-4.0504,-4.0518,-4.0524,-4.0529,0,0,0,0,0,0,-4.0145,-4.0178,-4.0177,-4.0228,-4.0253,-4.0282,-4.0307,-4.0306,-4.0335,-4.0332,-4.0342,-4.0349,-4.0395,-4.0409,-4.0387,-4.0465,-4.0446,-4.0452,-4.0453,-4.0459,-4.0464,-4.0459,-4.0374,0,0,0,0,0,-4.0153,-4.0185,-4.0213,-4.0255,-4.0267,-4.0285,-4.0304,-4.0309,-4.0335,-4.0345,-4.0364,-4.0389,-4.0421,-4.0441,-4.0472,-4.0523,-4.0529,-4.0545,-4.0549,-4.0553,-4.0557,-4.0585,-4.0592,-4.0517,-4.0517,-4.0517,0,0,-4.017,-4.0193,-4.0212,-4.0257,-4.0277,-4.0309,-4.0294,-4.0329,-4.0353,-4.035,-4.0394,-4.0409,-4.0438,-4.0486,-4.0508,-4.05,-4.058,-4.0558,-4.056,-4.0563,-4.0589,-4.0596,-4.0602,-4.052,-4.0519,-4.0519,0,0,-4.0218,-4.0238,-4.0275,-4.0295,-4.0326,-4.0337,-4.0346,-4.0376,-4.0386,-4.043,-4.0429,-4.0457,-4.0512,-4.0532,-4.0549,-4.0605,-4.0602,-4.0615,-4.0639,-4.0665,-4.0671,-4.0676,-4.0695,-4.0702,-4.0619,-4.0619,-4.0619,0,-4.0235,-4.0284,-4.0294,-4.0329,-4.0349,-4.0349,-4.0386,-4.0405,-4.0444,-4.0457,-4.0447,-4.0515,-4.0534,-4.0587,-4.06,-4.0615,-4.0625,-4.061,-4.067,-4.0675,-4.068,-4.0698,-4.0705,-4.0621,-4.062,-4.062,-4.062,0,-4.0303,-4.0337,-4.0363,-4.0401,-4.0423,-4.0459,-4.0474,-4.0496,-4.05,-4.0512,-4.0557,-4.058,-4.0615,-4.0628,-4.0632,-4.0681,-4.0675,-4.0667,-4.0649,-4.0688,-4.0705,-4.0712,-4.0622,-4.0622,-4.0622,-4.0621,0,0,-4.0358,-4.0401,-4.041,-4.0426,-4.046,-4.0486,-4.0522,-4.0557,-4.0574,-4.0602,-4.0631,-4.0677,-4.067,-4.069,-4.0696,-4.072,-4.0761,-4.0709,-4.071,-4.0717,-4.0816,-4.082,-4.0828,-4.076,-4.0761,-4.0762,-4.0813,0,-4.0408,-4.0471,-4.0481,-4.0537,-4.0568,-4.0569,-4.06,-4.0624,-4.0637,-4.0665,-4.0679,-4.0711,-4.07,-4.0712,-4.0735,-4.0751,-4.078,-4.0748,-4.0786,-4.0788,-4.0778,-4.0837,-4.0842,-4.0888,-4.0819,-4.0821,-4.0821,0,-4.0474,-4.0503,-4.0561,-4.059,-4.0604,-4.0632,-4.0663,-4.0691,-4.0718,-4.0725,-4.0748,-4.0751,-4.0788,-4.0769,-4.0819,-4.0796,-4.0813,-4.0823,-4.0825,-4.0828,-4.0806,-4.084,-4.0904,-4.091,-4.0832,-4.0831,-4.0831,0,-4.0507,-4.056,-4.0602,-4.0616,-4.0651,-4.067,-4.0686,-4.0712,-4.0731,-4.076,-4.0772,-4.0804,-4.0822,-4.0846,-4.0858,-4.0843,-4.0907,-4.0889,-4.0914,-4.0913,-4.0926,-4.0925,-4.0992,-4.0939,-4.0939,-4.0939,-4.0939,0,-4.056,-4.0596,-4.0616,-4.0642,-4.0682,-4.0693,-4.0732,-4.0747,-4.077,-4.0798,-4.0801,-4.0827,-4.0842,-4.087,-4.088,-4.0919,-4.0928,-4.0934,-4.0936,-4.0933,-4.0932,-4.0943,-4.094,-4.0941,-4.0941,-4.094,-4.094,0,-4.0603,-4.0618,-4.0663,-4.0693,-4.0701,-4.0729,-4.0754,-4.0779,-4.0792,-4.0827,-4.0836,-4.0857,-4.089,-4.0905,-4.0946,-4.0953,-4.0998,-4.0998,-4.0988,-4.0989,-4.1012,-4.1009,-4.1087,-4.1097,-4.1039,-4.104,-4.104,0,-4.0635,-4.0663,-4.0695,-4.0714,-4.073,-4.0761,-4.0781,-4.0794,-4.0815,-4.0847,-4.0868,-4.0902,-4.0929,-4.0983,-4.1001,-4.1032,-4.1032,-4.1058,-4.1037,-4.1033,-4.1031,-4.1029,-4.1031,-4.1061,-4.1061,-4.1062,-4.1062,0,-4.0691,-4.0697,-4.0726,-4.0758,-4.0782,-4.0808,-4.0833,-4.0848,-4.0865,-4.0888,-4.0922,-4.0944,-4.0986,-4.1019,-4.1051,-4.1067,-4.1067,-4.1069,-4.1076,-4.1072,-4.1065,-4.1068,-4.0997,-4.1067,-4.1066,-4.1066,-4.1066,-4.1065,-4.0729,-4.0753,-4.0779,-4.0811,-4.0831,-4.0855,-4.0879,-4.0895,-4.0924,-4.0959,-4.0965,-4.1001,-4.1027,-4.1071,-4.1088,-4.1117,-4.111,-4.1121,-4.1123,-4.1125,-4.1126,-4.1062,-4.1123,-4.1123,-4.1123,-4.1123,-4.1123,0,-4.0784,-4.0801,-4.083,-4.0865,-4.089,-4.0889,-4.0916,-4.0937,-4.0969,-4.0994,-4.1021,-4.106,-4.1092,-4.1113,-4.1145,-4.1164,-4.1165,-4.1172,-4.117,-4.1173,-4.1131,-4.1121,-4.1171,-4.1171,-4.1171,-4.117,-4.117,-4.117,-4.0815,-4.0855,-4.0864,-4.0914,-4.0931,-4.0967,-4.0983,-4.1004,-4.1023,-4.1067,-4.1093,-4.1107,-4.113,-4.1164,-4.1193,-4.1199,-4.121,-4.1217,-4.1222,-4.1181,-4.1176,-4.1171,-4.1162,-4.122,-4.122,-4.1262,-4.1262,-4.1262]},{"header":{"parameterUnit":"m.s-1","parameterCategory":1,"la1":30.2991,"la2":30.254,"lo1":-89.0895,"lo2":-89.0444,"dy":0.0017,"dx":0.0017,"nx":28,"ny":28,"refTime":"2023-09-04T09:00:00:Z","depth":0,"parameterNumber":3,"parameterNumberName":"V-component_of_WINDS"},"data":[0,0,0,0,0,0,0,0,0,0,0,0,0,0,0,0,0,0,0,0,0,0,0,0,0,0,0,0,0,0,0,0,0,0,0,0,0,0,0,0,0,0,0,0,0,0,0,0,0,0,0,0,0,0,0,0,0,0,2.5513,2.5513,0,2.5555,2.5556,2.5556,2.557,2.557,2.557,2.557,2.561,2.5611,2.5613,0,0,0,0,0,0,0,0,0,0,0,0,0,2.5443,2.5445,2.5513,2.5514,2.5514,2.5555,2.5556,2.5556,2.557,2.557,2.557,2.557,2.561,2.5611,2.5613,0,0,0,0,0,0,0,0,0,0,0,0,0,2.5478,2.5445,2.5513,2.5526,2.5528,2.5555,2.5556,2.5556,2.557,2.557,2.557,2.557,2.5609,2.5611,2.5613,2.5629,0,0,2.5619,2.5619,0,0,0,0,0,0,0,0,2.5476,2.5481,2.5524,2.5525,2.5527,2.5557,2.5546,2.5581,2.557,2.5554,2.557,2.557,2.5593,2.5596,2.5604,2.5631,2.5633,2.5619,2.562,2.5621,2.5621,0,0,0,0,0,0,0,2.5474,2.5479,2.553,2.5524,2.5526,2.553,2.5534,2.5553,2.5574,2.5555,2.5557,2.5562,2.5594,2.5602,2.5605,2.5634,2.5619,2.562,2.5622,2.5622,2.5678,2.5678,0,0,0,0,0,0,2.547,2.5477,2.5528,2.5531,2.5501,2.5531,2.5536,2.5548,2.5574,2.5578,2.5562,2.5562,2.5599,2.5603,2.5607,2.5629,2.5621,2.5622,2.5624,2.5677,2.5678,2.5678,0,0,0,0,0,0,2.5468,2.5474,2.5527,2.5504,2.5511,2.5532,2.5545,2.5549,2.5558,2.5579,2.5582,2.5567,2.5599,2.5604,2.5624,2.563,2.5623,2.5625,2.5677,2.5678,2.5678,2.5672,0,0,0,0,0,0,2.5466,2.5473,2.548,2.5504,2.5512,2.5544,2.5546,2.555,2.5561,2.5562,2.5585,2.5588,2.56,2.5621,2.5626,2.5633,2.5626,2.5677,2.5677,2.5678,2.5671,2.5672,2.5672,0,0,0,0,0,2.5463,2.5475,2.548,2.5486,2.5521,2.5544,2.5548,2.5562,2.5562,2.5568,2.5582,2.5587,2.5629,2.5623,2.5629,2.5636,2.5676,2.5677,2.5678,2.5671,2.5672,2.5672,0,0,0,0,0,0,2.5449,2.5479,2.5484,2.5505,2.5522,2.5546,2.5555,2.5562,2.5579,2.5579,2.5594,2.5599,2.5618,2.5629,2.5622,2.5654,2.5653,2.5655,2.5646,2.5647,2.5647,2.5644,2.5628,0,0,0,0,0,2.5449,2.5466,2.549,2.5506,2.5514,2.5533,2.5544,2.5553,2.5571,2.5578,2.5593,2.561,2.5627,2.5637,2.5654,2.5673,2.5679,2.5681,2.5682,2.5682,2.5683,2.5695,2.5697,2.5681,2.5681,2.5681,0,0,2.5448,2.5466,2.5475,2.5504,2.5518,2.5535,2.5539,2.5556,2.5569,2.558,2.56,2.5612,2.5632,2.5652,2.5662,2.5662,2.5689,2.5683,2.5683,2.5684,2.5696,2.5698,2.5699,2.5682,2.5681,2.5681,0,0,2.5454,2.547,2.5485,2.55,2.5522,2.5535,2.5539,2.5563,2.5571,2.5592,2.5602,2.5617,2.5645,2.5659,2.567,2.5684,2.569,2.5689,2.5691,2.5703,2.5704,2.5705,2.5711,2.5713,2.5691,2.5691,2.5691,0,2.5449,2.5476,2.5492,2.5509,2.5521,2.5534,2.555,2.5563,2.559,2.5598,2.5598,2.5635,2.5649,2.5673,2.5677,2.5685,2.569,2.5686,2.5703,2.5704,2.5706,2.5711,2.5713,2.569,2.569,2.569,2.569,0,2.5469,2.5487,2.5497,2.5524,2.5537,2.5553,2.5572,2.5584,2.5592,2.5605,2.5627,2.5645,2.5666,2.5672,2.568,2.5698,2.5698,2.57,2.5699,2.5707,2.5712,2.5714,2.569,2.569,2.569,2.569,0,0,2.5466,2.5503,2.5507,2.552,2.5546,2.556,2.5578,2.56,2.561,2.5628,2.5643,2.5668,2.5671,2.5683,2.5693,2.5703,2.5714,2.5705,2.5706,2.5706,2.5736,2.5734,2.5736,2.5719,2.5719,2.5719,2.5734,0,2.5476,2.5509,2.5525,2.555,2.5567,2.5581,2.5596,2.5614,2.5627,2.5643,2.5657,2.5675,2.5677,2.5685,2.5696,2.5711,2.572,2.571,2.5732,2.5733,2.5727,2.5738,2.5736,2.5749,2.5736,2.5737,2.5737,0,2.5492,2.5512,2.5539,2.5565,2.5573,2.5586,2.5609,2.5624,2.5645,2.5654,2.5669,2.5679,2.5698,2.5696,2.5722,2.5715,2.5725,2.5734,2.5735,2.5737,2.5735,2.5741,2.5753,2.5755,2.574,2.574,2.574,0,2.5488,2.5521,2.5542,2.5553,2.5584,2.5593,2.5606,2.5627,2.564,2.5659,2.5667,2.5688,2.5699,2.5715,2.5731,2.5728,2.5756,2.5755,2.5763,2.5763,2.5768,2.5767,2.5782,2.5775,2.5775,2.5775,2.5775,0,2.5497,2.5513,2.5541,2.5554,2.5573,2.5591,2.5609,2.5623,2.5642,2.5658,2.567,2.5685,2.5705,2.5721,2.5734,2.5754,2.5759,2.5766,2.5769,2.5765,2.5764,2.5772,2.5771,2.5775,2.5775,2.5775,2.5775,0,2.5495,2.5514,2.5538,2.5567,2.5574,2.5587,2.5611,2.5624,2.5638,2.5658,2.5664,2.5686,2.5707,2.5724,2.5751,2.5759,2.578,2.5784,2.5773,2.5775,2.5782,2.5781,2.5802,2.5806,2.5796,2.5796,2.5796,0,2.55,2.5513,2.5543,2.5555,2.5569,2.5588,2.5601,2.562,2.5634,2.566,2.567,2.5692,2.571,2.5743,2.5761,2.5782,2.5786,2.5792,2.5789,2.5785,2.5786,2.5785,2.5787,2.5792,2.5792,2.5792,2.5792,0,2.5506,2.5515,2.5535,2.5559,2.5575,2.5594,2.5613,2.5622,2.5645,2.5659,2.5681,2.5696,2.5725,2.5746,2.577,2.5783,2.5791,2.5793,2.5796,2.5792,2.5785,2.5789,2.5774,2.5792,2.5792,2.5792,2.5792,2.5792,2.5508,2.5521,2.5544,2.5566,2.5583,2.5601,2.5616,2.5633,2.5652,2.5677,2.5687,2.571,2.5732,2.5764,2.5777,2.5795,2.5796,2.58,2.5801,2.5802,2.5802,2.5783,2.58,2.58,2.58,2.58,2.58,0,2.5515,2.5532,2.5552,2.5579,2.5596,2.5604,2.5627,2.564,2.5661,2.5681,2.5699,2.5725,2.5747,2.5768,2.5791,2.5801,2.5805,2.5806,2.5805,2.5809,2.5799,2.5795,2.5802,2.5802,2.5802,2.5802,2.5802,2.5802,2.5521,2.5543,2.5556,2.5587,2.5603,2.5627,2.5639,2.5656,2.5672,2.5701,2.572,2.5734,2.5754,2.5779,2.5799,2.5805,2.5812,2.5812,2.5819,2.581,2.5809,2.5808,2.5804,2.5814,2.5814,2.5826,2.5826,2.5826]}]]